Weather History for Bainbridge, GA

Change the Weather History Date:

Thursday, January 24, 2013

  Actual Average (KMAI) Record (KMAI)
Temperature  
Mean Temperature 56 °F 51 °F  
Max Temperature 71 °F 62 °F 80 °F (2002)
Min Temperature 42 °F 40 °F 16 °F (2003)
Degree Days  
Heating Degree Days 8    
Month to date heating degree days  
Since 1 July heating degree days  
Cooling Degree Days 0    
Month to date cooling degree days  
Year to date cooling degree days  
Growing Degree Days 6 (Base 50)    
Moisture  
Dew Point 50 °F    
Average Humidity 78    
Maximum Humidity 100    
Minimum Humidity 46    
Precipitation  
Precipitation 0.00 in 0.20 in 0.76 in (2000)
Month to date precipitation 3.72  
Year to date precipitation 3.72  
Sea Level Pressure  
Sea Level Pressure 30.28 in    
Wind  
Wind Speed 6 mph (West)    
Max Wind Speed 16 mph    
Max Gust Speed 23 mph    
Visibility 9 miles    
Events      
T = Trace of Precipitation, MM = Missing Value Source: NWS Daily Summary

Daily Weather History Graph

Daily Weather History Graph

Search for Another Location

Airport:

Trip Planner

Search our weather history database for the weather conditions in past years. The results will help you decide how hot, cold, wet, or windy it might be!

Date:

Astronomy

Jan. 24, 2013 Rise Set
Actual Time 7:34 AM EST 6:07 PM EST
Civil Twilight 7:08 AM EST 6:33 PM EST
Nautical Twilight 6:39 AM EST 7:02 PM EST
Astronomical Twilight 6:10 AM EST 7:31 PM EST
Moon 4:10 PM EST (1/24) 5:28 AM EST (1/24)
Length of Visible Light 11h 24m
Length of Day
10h 32m
Waxing Gibbous, 94% of the Moon is Illuminated
Jan 24
Waxing Gibbous
Jan 26
Full
Feb 3
Last Quarter
Feb 10
New
Feb 17
First Quarter

Hourly Weather History & Observations

Time (EST) Temp. Windchill Dew Point Humidity Pressure Visibility Wind Dir Wind Speed Gust Speed Precip Events Conditions
12:15 AM 44.6 °F 41.4 °F 41.0 °F 87% 30.31 in 10.0 mi SW 5.8 mph - N/A   Clear
12:35 AM 44.6 °F 41.4 °F 42.8 °F 93% 30.30 in 10.0 mi SSW 5.8 mph - N/A   Clear
12:55 AM 44.6 °F 42.2 °F 42.8 °F 93% 30.30 in 10.0 mi SW 4.6 mph - N/A   Clear
1:15 AM 44.6 °F - 42.8 °F 93% 30.29 in 10.0 mi Calm Calm - N/A   Clear
1:35 AM 44.6 °F - 41.0 °F 87% 30.30 in 7.0 mi Calm Calm - N/A   Clear
1:55 AM 44.6 °F 43.1 °F 42.8 °F 93% 30.30 in 10.0 mi SW 3.5 mph - N/A   Clear
2:15 AM 42.8 °F 41.1 °F 41.0 °F 93% 30.30 in 7.0 mi WSW 3.5 mph - N/A   Clear
2:35 AM 42.8 °F 41.1 °F 42.8 °F 100% 30.28 in 7.0 mi SW 3.5 mph - N/A   Scattered Clouds
2:55 AM 44.6 °F 43.1 °F 42.8 °F 93% 30.29 in 7.0 mi WSW 3.5 mph - N/A   Clear
3:15 AM 44.6 °F 42.2 °F 42.8 °F 93% 30.28 in 7.0 mi SW 4.6 mph - N/A   Clear
3:35 AM 44.6 °F 41.4 °F 44.6 °F 100% 30.27 in 5.0 mi SW 5.8 mph - N/A   Clear
3:55 AM 46.4 °F 43.5 °F 46.4 °F 100% 30.26 in 7.0 mi SW 5.8 mph - N/A   Clear
4:15 AM 50.0 °F - 46.4 °F 87% 30.26 in 7.0 mi SW 6.9 mph - N/A   Clear
4:35 AM 50.0 °F - 46.4 °F 87% 30.26 in 7.0 mi West 3.5 mph - N/A   Clear
4:55 AM 48.2 °F - 46.4 °F 93% 30.26 in 7.0 mi Calm Calm - N/A   Clear
5:15 AM 46.4 °F 44.3 °F 44.6 °F 93% 30.27 in 7.0 mi West 4.6 mph - N/A   Clear
5:35 AM 44.6 °F 43.1 °F 44.6 °F 100% 30.27 in 5.0 mi WSW 3.5 mph - N/A   Scattered Clouds
5:55 AM 46.4 °F 44.3 °F 44.6 °F 93% 30.28 in 5.0 mi SW 4.6 mph - N/A   Mostly Cloudy
6:15 AM 46.4 °F - 46.4 °F 100% 30.28 in 5.0 mi Calm Calm - N/A   Mostly Cloudy
6:35 AM 46.4 °F 44.3 °F 46.4 °F 100% 30.28 in 5.0 mi SW 4.6 mph - N/A   Mostly Cloudy
6:55 AM 51.8 °F - 50.0 °F 94% 30.28 in 10.0 mi WSW 5.8 mph - N/A   Mostly Cloudy
7:15 AM 51.8 °F - 50.0 °F 94% 30.28 in 10.0 mi WSW 8.1 mph - N/A   Overcast
7:35 AM 51.8 °F - 50.0 °F 94% 30.28 in 10.0 mi West 6.9 mph - N/A   Overcast
8:15 AM 53.6 °F - 50.0 °F 88% 30.28 in 10.0 mi West 8.1 mph - N/A   Scattered Clouds
8:35 AM 53.6 °F - 50.0 °F 88% 30.29 in 10.0 mi West 8.1 mph - N/A   Clear
8:55 AM 57.2 °F - 51.8 °F 82% 30.29 in 10.0 mi West 10.4 mph - N/A   Clear
9:15 AM 59.0 °F - 51.8 °F 77% 30.30 in 10.0 mi West 12.7 mph 18.4 mph N/A   Clear
9:35 AM 60.8 °F - 51.8 °F 72% 30.31 in 10.0 mi West 12.7 mph - N/A   Clear
9:55 AM 62.6 °F - 51.8 °F 68% 30.31 in 10.0 mi West 12.7 mph 19.6 mph N/A   Clear
10:15 AM 62.6 °F - 51.8 °F 68% 30.32 in 10.0 mi WNW 16.1 mph 23.0 mph N/A   Clear
10:35 AM 62.6 °F - 51.8 °F 68% 30.32 in 10.0 mi West 13.8 mph 20.7 mph N/A   Clear
10:55 AM 64.4 °F - 51.8 °F 64% 30.32 in 10.0 mi WNW 11.5 mph 17.3 mph N/A   Clear
11:15 AM 66.2 °F - 51.8 °F 60% 30.33 in 10.0 mi NW 11.5 mph 19.6 mph N/A   Clear
11:35 AM 68.0 °F - 51.8 °F 56% 30.32 in 10.0 mi WNW 11.5 mph - N/A   Clear
11:55 AM 68.0 °F - 53.6 °F 60% 30.32 in 10.0 mi NNW 15.0 mph 21.9 mph N/A   Scattered Clouds
12:15 PM 68.0 °F - 53.6 °F 60% 30.32 in 10.0 mi NW 15.0 mph 23.0 mph N/A   Mostly Cloudy
12:35 PM 66.2 °F - 53.6 °F 64% 30.31 in 10.0 mi NW 15.0 mph 20.7 mph N/A   Scattered Clouds
12:55 PM 69.8 °F - 53.6 °F 56% 30.30 in 10.0 mi NW 12.7 mph 18.4 mph N/A   Clear
1:15 PM 69.8 °F - 53.6 °F 56% 30.28 in 10.0 mi West 12.7 mph 17.3 mph N/A   Clear
1:35 PM 71.6 °F - 55.4 °F 57% 30.26 in 10.0 mi West 12.7 mph 17.3 mph N/A   Clear
1:55 PM 71.6 °F - 53.6 °F 53% 30.26 in 10.0 mi WNW 12.7 mph 18.4 mph N/A   Clear
2:15 PM 71.6 °F - 53.6 °F 53% 30.25 in 10.0 mi West 12.7 mph - N/A   Scattered Clouds
2:35 PM 71.6 °F - 53.6 °F 53% 30.25 in 10.0 mi NW 12.7 mph - N/A   Mostly Cloudy
2:55 PM 71.6 °F - 51.8 °F 50% 30.25 in 10.0 mi WNW 9.2 mph - N/A   Scattered Clouds
3:15 PM 71.6 °F - 51.8 °F 50% 30.24 in 10.0 mi NW 11.5 mph 17.3 mph N/A   Clear
3:35 PM 71.6 °F - 51.8 °F 50% 30.24 in 10.0 mi NW 12.7 mph - N/A   Clear
3:55 PM 71.6 °F - 51.8 °F 50% 30.24 in 10.0 mi WNW 9.2 mph - N/A   Clear
4:15 PM 71.6 °F - 50.0 °F 46% 30.24 in 10.0 mi WNW 11.5 mph - N/A   Clear
4:35 PM 71.6 °F - 50.0 °F 46% 30.24 in 10.0 mi WNW 10.4 mph 17.3 mph N/A   Scattered Clouds
4:55 PM 71.6 °F - 53.6 °F 53% 30.24 in 10.0 mi WNW 6.9 mph - N/A   Scattered Clouds
5:15 PM 71.6 °F - 53.6 °F 53% 30.23 in 10.0 mi WNW 6.9 mph - N/A   Scattered Clouds
5:35 PM 71.6 °F - 53.6 °F 53% 30.23 in 10.0 mi NW 6.9 mph - N/A   Scattered Clouds
5:55 PM 69.8 °F - 53.6 °F 56% 30.24 in 10.0 mi NW 4.6 mph - N/A   Scattered Clouds
6:15 PM 64.4 °F - 51.8 °F 64% 30.24 in 10.0 mi NW 3.5 mph - N/A   Scattered Clouds
6:35 PM 64.4 °F - 51.8 °F 64% 30.24 in 10.0 mi Calm Calm - N/A   Clear
6:55 PM 62.6 °F - 51.8 °F 68% 30.25 in 10.0 mi Calm Calm - N/A   Clear
7:15 PM 62.6 °F - 53.6 °F 72% 30.25 in 10.0 mi Calm Calm - N/A   Clear
7:35 PM 57.2 °F - 51.8 °F 82% 30.26 in 10.0 mi Calm Calm - N/A   Clear
7:55 PM 57.2 °F - 51.8 °F 82% 30.26 in 10.0 mi Calm Calm - N/A   Clear
8:15 PM 53.6 °F - 51.8 °F 94% 30.27 in 10.0 mi Calm Calm - N/A   Clear
8:35 PM 57.2 °F - 51.8 °F 82% 30.27 in 10.0 mi Calm Calm - N/A   Clear
8:55 PM 57.2 °F - 51.8 °F 82% 30.28 in 10.0 mi Calm Calm - N/A   Clear
9:15 PM 53.6 °F - 51.8 °F 94% 30.28 in 7.0 mi Calm Calm - N/A   Clear
9:35 PM 53.6 °F - 51.8 °F 94% 30.29 in 10.0 mi Calm Calm - N/A   Clear
9:55 PM 53.6 °F - 51.8 °F 94% 30.29 in 10.0 mi Calm Calm - N/A   Clear
10:15 PM 51.8 °F - 50.0 °F 94% 30.30 in 10.0 mi Calm Calm - N/A   Clear
10:35 PM 51.8 °F - 50.0 °F 94% 30.30 in 10.0 mi Calm Calm - N/A   Clear
10:55 PM 51.8 °F - 50.0 °F 94% 30.31 in 7.0 mi Calm Calm - N/A   Scattered Clouds
11:15 PM 51.8 °F - 50.0 °F 94% 30.31 in 7.0 mi Calm Calm - N/A   Scattered Clouds
11:35 PM 50.0 °F - 50.0 °F 100% 30.30 in 5.0 mi Calm Calm - N/A   Clear
11:55 PM 50.0 °F - 48.2 °F 94% 30.30 in 5.0 mi Calm Calm - N/A   Clear